Location: La Brionne
(46.1728°N, 1.7849°E)
Time: 19:33:22
(UTC+00:00)

USA 267 - Pass Details

Date: 01 November 2021
Orbit: 1101 x 1107 km, 123.0° (Epoch: 27 November)

Event Time Altitude Azimuth Distance (km) Brightness Sun altitude
Exits shadow 20:59:00 18° 252° (WSW) 2,426 5.3 -44.5°
Drops below altitude 10° 21:02:07 10° 280° (W) 2,960 6.0 -45.0°
Sets 21:05:31 0° 298° (WNW) 3,922 6.9 -45.5°
